Flag for Philippines Weather past 2 weeks in Zamboanga City, Philippines

Now
91 °F

Scattered clouds.


Feels Like: 108 °F
Forecast: 77 / 90 °F
Wind: 5 mph from Southeast

Location: Zamboanga

Current Time: May 26, 2015 at 2:49:28 PM

Latest Report: May 26, 2015 at 2:00 PM


Visibility: N/A

Pressure: 29.89 "Hg

Humidity: 67%

Dew point: 79 °F

Location of Zamboanga CityLocation

Historic Weather in Zamboanga City — Graph

°F

Zamboanga City temperature yesterday

Maximum temperature yesterday: 95 °F (at 1:00 PM)
Minimum temperature yesterday: 75 °F (at 6:00 AM)
Average temperature yesterday: 85 °F

Past Weeks' High & Low Weather Summary

 TemperatureHumidityPressure
High97 °F (May 11, 2:00 PM)100% (May 25, 6:00 AM)30.01 "Hg (May 25, 6:00 AM)
Low75 °F (May 14, 5:00 AM)56% (May 11, 2:00 PM)29.83 "Hg (May 11, 4:00 PM)
Average86 °F79%29.90 "Hg
* Reported May 11 2:00 PM — May 26 2:00 PM, Zamboanga City, Weather by CustomWeather, © 2015

Note: Actual official high and low records may vary slightly from our data, if they occured in-between our weather recording intervals... More about our weather records

Advertising

Zamboanga City weather history for previous 24 hours

 ConditionsComfort  
Time TempWeatherWind HumidityBarometerVisibility
2:00 PM
Tue, May 26
91 °FScattered clouds.5 mph67%29.89 "HgN/A
1:00 PM95 °FPassing clouds.5 mph63%29.92 "HgN/A
12:00 PM95 °FPassing clouds.5 mph60%29.92 "HgN/A
11:00 AM93 °FPassing clouds.5 mph63%29.95 "HgN/A
10:00 AM91 °FPassing clouds.5 mph67%29.95 "HgN/A
9:00 AM88 °FPassing clouds.5 mph75%29.95 "HgN/A
8:00 AM84 °FPassing clouds.5 mph79%29.95 "HgN/A
7:00 AM79 °FPassing clouds.2 mph89%29.95 "HgN/A
6:00 AM77 °FPassing clouds.No wind89%29.95 "HgN/A
5:00 AM77 °FPassing clouds.No wind89%29.92 "HgN/A
2:00 AM79 °FPassing clouds.5 mph84%29.92 "HgN/A
11:00 PM
Mon, May 25
81 °FPassing clouds.5 mph89%29.98 "HgN/A
8:00 PM84 °FPassing clouds.No wind79%29.92 "HgN/A
6:00 PM88 °FPassing clouds.2 mph75%29.89 "HgN/A
5:00 PM90 °FScattered clouds.5 mph71%29.86 "HgN/A
4:00 PM93 °FScattered clouds.5 mph67%29.86 "HgN/A
3:00 PM93 °FScattered clouds.5 mph67%29.86 "HgN/A
2:00 PM93 °FPartly sunny.5 mph67%29.89 "HgN/A
Weather by CustomWeather, © 2015

See weather overviewHow to use our weather pages